COSMOS 2251 DEB, 34885

Orbit data source: Space-Track

COSMOS 2251 DEB, 34885 is space debris in LEO originally from a launch on Wed, 16 Jun 1993 UTC launched from the Plesetsk Missile And Space Complex (PKMTR). The debris from Iridium 33, an American commercial communications satellite, has been tracked extensively since its accidental collision with the defunct Russian satellite Cosmos 2251 in 2009. This event, occurring at high speed in low Earth orbit (LEO), generated thousands of pieces of space debris, significantly increasing the risk of further collisions. The Iridium 33 debris cloud has impacted space traffic management and orbital debris mitigation strategies, making it a subject of ongoing study in space situational awareness.

Loading next visibility...
Identifier
34885, 1993-036ACY
Orbit
LEO
Country
Flag of CISCIS
Related business
Manufacturer
Unknown
Mission
Spacecraft
Bus & Motor
Unknown
Mass
Unknown
Launch date (UTC)
1993-06-16 (33 years ago)
Launch vehicle
Unknown
Launch site
Plesetsk Missile And Space Complex (PKMTR)
Object type
Payload
Rocket body
Debris
Shape & HBR
Unknown shape, 0.1 m
Radar Cross Section
Medium (>0.1 m² and <1 m²)

Expand to show TLE details & history
Last TLE update: 12 hours ago

TLE from 12 hours ago
0 COSMOS 2251 DEB
1 34885U 93036ACY 26263.42183618  .00001209  00000-0  30067-3 0  9992
2 34885  74.0323  11.9647 0014621  25.2287  42.5310 14.52804555915680
Epoch: 2026-09-20T10:07Z
TLE epoch observation values (Epoch: 2026-09-20T10:07:26.645Z)
Latitude
63.05272°
Longitude
-105.16837°
Altitude
719.345 km
Speed
7.506 km/s
True Right ascension
03h 04m 02s
True Declination
62° 54' 46"
Sunlit
Object was in daylight at epoch
Visualization orbit readout
Latitude
Unknown
Longitude
Unknown
Altitude
Unknown
Speed
Unknown
Apparent Right ascension
Unknown
Apparent Declination
Unknown
Sunlit
N/A
Visualization observer readout
Local Sidereal Time
15:02:58
Azimuth
Unknown
Elevation
Unknown
Doppler factor
Unknown
Orbital elements
Apogee altitude
724.479 km
Perigee altitude
703.739 km
Semi-major axis
7,092.246 km
Eccentricity
0.00146
Inclination
74.0323°
RAAN
11.9647°
Arg. of periapsis
25.2287°
True anomaly
42.64441°
Mean anomaly
42.531°
Eccentric anomaly
42.58769°
Mean motion
3.63385 °/min
Orbital period
99.07 mins
BSTAR
0.00030067

Documentation

Showing up to 5 results
|